Location: Newark
(37.9844°N, 120.3817°W)
Time: 07:33:30
(UTC+00:00)

X-37B - Visible Passes

Search period start: 20 September 2020 00:00
Search period end: 30 September 2020 00:00
Orbit: 386 x 387 km, 45.0° (Epoch: 18 September)

Date Brightness Start Highest point End Pass type
(mag) Time Alt. Az. Time Alt. Az. Time Alt. Az.
20 Sep 2.4 12:19:14 20° NNW 12:20:27 26° N 12:23:11 10° ENE visible
21 Sep 3.8 11:23:27 15° NE 11:23:27 15° NE 11:24:16 10° ENE visible
21 Sep 1.3 12:55:45 11° NW 12:58:45 50° NNE 13:01:51 10° E visible
22 Sep 2.0 12:00:04 33° NNE 12:00:04 33° NNE 12:03:00 10° E visible
23 Sep 0.5 12:36:48 30° WNW 12:38:14 88° NE 12:41:24 10° ESE visible
24 Sep 3.1 11:41:23 22° E 11:41:23 22° E 11:42:43 10° E visible
24 Sep 1.9 13:13:41 11° W 13:16:06 24° SW 13:18:44 10° SSE visible
25 Sep 1.5 12:18:25 37° SSE 12:18:25 37° SSE 12:20:43 10° SE visible
26 Sep 2.8 12:55:38 12° SW 12:55:38 12° SW 12:56:48 10° SSW visible
